User: anonymous   Login
Location: French Creek State Gamelands
(40.1750°N, 75.7969°W)
Time: 05:42:33
(UTC-05:00)
Language:

ISS - Orbit

View from above orbital plane
View from above orbital plane
View from above satellite
View from above satellite

Ground track
Ground track

The orbit data is extracted from the following two-line orbital elements,

1 25544U 98067A   17017.05544206  .00016717  00000-0  10270-3 0  9065
2 25544  51.6430  71.7298 0007382  87.3618 272.8380 15.54060877 38248
Epoch (UTC): 17 January 2017 01:19:50
Eccentricity: 0.0007382
inclination: 51.6430°
perigee height: 400 km
apogee height: 410 km
right ascension of ascending node: 71.7298°
argument of perigee: 87.3618°
revolutions per day: 15.54060877
mean anomaly at epoch: 272.8380°
orbit number at epoch: 3824

The dashed part of the orbit path shows where the satellite is in the earth's shadow,  

DLR